FW6441 Weather Reports


time (UTC)temp
C
wind
direction
speed
KPH
gust
KPH
rain 1hr
cm
rain 24hr
cm
rain mn
cm
humidity
%
barometer
mb
20260507044409 13 147 0.0 4.8 0.00 0.00 0.00 80 1008.5
20260507043408 13 150 1.6 9.7 0.00 0.00 0.00 80 1008.4
20260507042908 13 146 3.2 9.7 0.00 0.00 0.00 80 1008.4
20260507041909 13 142 3.2 8.0 0.00 0.00 0.00 81 1008.3
20260507041407 13 143 3.2 8.0 0.00 0.00 0.00 81 1008.3
20260507040908 13 156 3.2 8.0 0.00 0.00 0.00 81 1008.3
20260507040409 13 165 3.2 9.7 0.00 0.00 0.00 81 1008.3
20260507035907 13 164 4.8 9.7 0.00 0.00 0.00 82 1008.3
20260507035408 13 159 4.8 12.9 0.00 0.00 0.00 81 1008.2
20260507034908 13 154 4.8 12.9 0.00 0.00 0.00 82 1008.2
20260507034408 13 153 3.2 9.7 0.00 0.00 0.00 82 1008.3
20260507033907 13 157 3.2 9.7 0.00 0.00 0.00 81 1008.3
20260507033408 13 160 1.6 8.0 0.00 0.00 0.00 81 1008.4
20260507032908 13 155 1.6 8.0 0.00 0.00 0.00 81 1008.3
20260507032407 13 151 3.2 8.0 0.00 0.00 0.00 81 1008.3
20260507031908 13 152 3.2 8.0 0.00 0.00 0.00 82 1008.2
20260507031407 13 150 3.2 8.0 0.00 0.00 0.00 82 1008.2
20260507030409 13 160 6.4 14.5 0.00 0.00 0.00 81 1007.9
20260507025908 13 160 6.4 14.5 0.00 0.00 0.00 81 1007.9
20260507025408 13 158 6.4 12.9 0.00 0.00 0.00 81 1007.9
20260507024907 13 154 6.4 12.9 0.00 0.00 0.00 81 1008.0
20260507024408 13 154 4.8 12.9 0.00 0.00 0.00 81 1007.9
20260507023408 14 159 4.8 12.9 0.00 0.00 0.00 81 1007.9
20260507022908 14 161 4.8 11.3 0.00 0.00 0.00 81 1007.9
20260507022408 14 159 4.8 12.9 0.00 0.00 0.00 81 1007.9
20260507021908 14 159 6.4 12.9 0.00 0.00 0.00 81 1008.0
20260507021409 14 159 6.4 14.5 0.00 0.00 0.00 80 1007.9
20260507020907 14 160 6.4 14.5 0.00 0.00 0.00 80 1008.0
20260507020409 14 168 6.4 6.4 0.00 0.00 0.00 80 1008.1
20260507014909 14 157 8.0 17.7 0.00 0.00 0.00 80 1008.3
20260507014409 14 158 6.4 14.5 0.00 0.00 0.00 80 1008.3
20260507013909 14 157 8.0 14.5 0.00 0.00 0.00 80 1008.3
20260507013409 14 155 6.4 14.5 0.00 0.00 0.00 79 1008.3
20260507012410 14 157 8.0 14.5 0.00 0.00 0.00 79 1008.3
20260507011909 14 157 8.0 14.5 0.00 0.00 0.00 78 1008.4
20260507010409 14 160 6.4 14.5 0.00 0.00 0.00 77 1008.5
20260507005910 14 155 6.4 14.5 0.00 0.00 0.00 77 1008.6
20260507005410 14 160 6.4 14.5 0.00 0.00 0.00 77 1008.7
20260507004909 15 165 3.2 14.5 0.00 0.00 0.00 76 1008.9
20260507004409 15 166 3.2 8.0 0.00 0.00 0.00 76 1008.9
20260507003909 15 162 4.8 11.3 0.00 0.00 0.00 76 1008.7
20260507003409 15 156 4.8 14.5 0.00 0.00 0.00 76 1008.8
20260507002409 15 156 6.4 11.3 0.00 0.00 0.00 75 1008.9
20260507001409 15 173 3.2 9.7 0.00 0.00 0.00 74 1009.0
20260507000909 15 173 3.2 9.7 0.00 0.00 0.00 74 1009.0
20260506235909 15 165 4.8 9.7 0.00 0.00 0.00 74 1009.0
20260506235410 15 160 4.8 9.7 0.00 0.00 0.00 74 1009.2
20260506234910 15 164 6.4 12.9 0.00 0.00 0.00 74 1009.2
20260506234408 15 165 8.0 12.9 0.00 0.00 0.00 74 1009.2
20260506233909 15 166 6.4 12.9 0.00 0.00 0.00 74 1009.2
20260506233409 15 174 4.8 14.5 0.00 0.00 0.00 73 1009.2
20260506232909 15 175 3.2 14.5 0.00 0.00 0.00 72 1009.2
20260506232409 16 181 3.2 11.3 0.00 0.00 0.00 72 1009.2
20260506231410 16 190 3.2 12.9 0.00 0.00 0.00 71 1009.1
20260506230910 16 188 1.6 8.0 0.00 0.00 0.00 71 1009.1
20260506230409 16 188 3.2 8.0 0.00 0.00 0.00 71 1009.2
20260506225909 16 189 3.2 8.0 0.00 0.00 0.00 71 1009.1
20260506224909 16 183 3.2 11.3 0.00 0.00 0.00 71 1009.2
20260506224410 16 186 3.2 11.3 0.00 0.00 0.00 71 1009.1
20260506223909 16 182 3.2 12.9 0.00 0.00 0.00 71 1009.2
20260506223409 16 184 6.4 14.5 0.00 0.00 0.00 71 1009.2
20260506222909 16 185 6.4 14.5 0.00 0.00 0.00 70 1009.2
20260506222409 16 188 6.4 14.5 0.00 0.00 0.00 70 1009.3
20260506221910 16 186 4.8 14.5 0.00 0.00 0.00 70 1009.3
20260506221409 16 183 4.8 14.5 0.00 0.00 0.00 69 1009.2
20260506220909 17 185 6.4 14.5 0.00 0.00 0.00 68 1009.2
20260506215909 17 210 3.2 11.3 0.00 0.00 0.00 67 1009.2
20260506215409 17 207 4.8 12.9 0.00 0.00 0.00 67 1009.1
20260506213409 17 209 6.4 12.9 0.00 0.00 0.00 64 1009.2
20260506212910 17 202 6.4 16.1 0.00 0.00 0.00 63 1009.2
20260506212409 17 212 6.4 16.1 0.00 0.00 0.00 63 1009.1
20260506211910 17 222 6.4 14.5 0.00 0.00 0.00 62 1009.1
20260506211408 17 225 8.0 14.5 0.00 0.00 0.00 62 1009.1
20260506210409 17 226 6.4 12.9 0.00 0.00 0.00 60 1008.9
20260506205910 18 226 6.4 12.9 0.00 0.00 0.00 59 1008.8
20260506205408 18 214 4.8 11.3 0.00 0.00 0.00 59 1008.6
20260506204909 18 216 4.8 11.3 0.00 0.00 0.00 59 1008.7
20260506204409 18 227 6.4 12.9 0.00 0.00 0.00 58 1008.7
20260506203909 18 225 6.4 12.9 0.00 0.00 0.00 58 1008.6
20260506203409 18 228 6.4 11.3 0.00 0.00 0.00 57 1008.6
20260506202409 18 233 8.0 16.1 0.00 0.00 0.00 56 1008.3
20260506201409 18 229 9.7 17.7 0.00 0.00 0.00 55 1008.3
20260506200908 18 229 9.7 17.7 0.00 0.00 0.00 54 1008.2
20260506200408 19 232 8.0 17.7 0.00 0.00 0.00 54 1008.3
20260506195910 19 236 8.0 17.7 0.00 0.00 0.00 54 1008.1
20260506194908 19 233 6.4 14.5 0.00 0.00 0.00 53 1007.9
20260506192413 20 239 11.3 19.3 0.00 0.00 0.00 50 1012.7
20260506191913 20 240 11.3 19.3 0.00 0.00 0.00 50 1012.7
20260506190913 21 237 6.4 17.7 0.00 0.00 0.00 49 1012.7
20260506190413 21 246 9.7 17.7 0.00 0.00 0.00 48 1012.7
20260506185914 21 243 9.7 19.3 0.00 0.00 0.00 48 1012.7
20260506185413 21 235 9.7 19.3 0.00 0.00 0.00 48 1012.7
20260506184914 21 251 8.0 17.7 0.00 0.00 0.00 47 1012.7
20260506184413 21 247 11.3 20.9 0.00 0.00 0.00 47 1012.7
20260506183914 22 240 12.9 20.9 0.00 0.00 0.00 47 1012.7
20260506183413 22 253 9.7 19.3 0.00 0.00 0.00 46 1012.7
20260506182913 22 266 9.7 22.5 0.00 0.00 0.00 45 1012.7
20260506182415 22 266 8.0 22.5 0.00 0.00 0.00 43 1012.7
20260506181913 23 280 8.0 16.1 0.00 0.00 0.00 42 1012.7
20260506181414 23 308 8.0 19.3 0.00 0.00 0.00 41 1012.7
20260506180913 23 261 8.0 19.3 0.00 0.00 0.00 40 1012.7
20260506175915 23 257 9.7 22.5 0.00 0.00 0.00 39 1012.7
20260506175414 23 257 8.0 22.5 0.00 0.00 0.00 38 1012.7
20260506174913 23 256 9.7 17.7 0.00 0.00 0.00 38 1012.7
20260506174413 24 254 8.0 19.3 0.00 0.00 0.00 37 1012.7
20260506173913 24 245 8.0 19.3 0.00 0.00 0.00 38 1012.7
20260506172914 24 222 8.0 19.3 0.00 0.00 0.00 38 1012.7
20260506172413 24 225 8.0 17.7 0.00 0.00 0.00 37 1012.7
20260506171913 24 240 6.4 17.7 0.00 0.00 0.00 37 1012.7
20260506170914 24 229 9.7 20.9 0.00 0.00 0.00 38 1012.7
20260506165914 24 244 9.7 19.3 0.00 0.00 0.00 38 1012.7
20260506165413 24 262 8.0 19.3 0.00 0.00 0.00 37 1012.7
20260506164913 25 271 6.4 19.3 0.00 0.00 0.00 37 1012.7
20260506164413 25 240 8.0 20.9 0.00 0.00 0.00 37 1012.7
20260506163913 24 253 9.7 20.9 0.00 0.00 0.00 36 1012.7
20260506163413 25 256 9.7 19.3 0.00 0.00 0.00 36 1012.7
20260506162913 25 233 9.7 20.9 0.00 0.00 0.00 36 1012.7
20260506161914 25 242 11.3 24.1 0.00 0.00 0.00 36 1012.7
20260506160913 25 241 11.3 24.1 0.00 0.00 0.00 35 1012.7
20260506155414 25 178 3.2 9.7 0.00 0.00 0.00 34 1012.7
20260506154913 25 145 3.2 6.4 0.00 0.00 0.00 32 1012.7
20260506154413 25 189 4.8 9.7 0.00 0.00 0.00 33 1012.7
20260506153914 25 186 6.4 14.5 0.00 0.00 0.00 33 1012.7
20260506153414 25 161 6.4 16.1 0.00 0.00 0.00 32 1012.7
20260506152413 25 202 3.2 12.9 0.00 0.00 0.00 32 1012.7
20260506151912 25 297 3.2 6.4 0.00 0.00 0.00 31 1012.7
20260506151414 25 339 3.2 6.4 0.00 0.00 0.00 31 1012.7
20260506150914 25 6 3.2 4.8 0.00 0.00 0.00 29 1012.7
20260506150413 25 312 3.2 8.0 0.00 0.00 0.00 30 1012.7
20260506145913 25 266 4.8 14.5 0.00 0.00 0.00 30 1012.7
20260506145414 25 216 4.8 14.5 0.00 0.00 0.00 31 1012.7
20260506144913 25 174 3.2 11.3 0.00 0.00 0.00 31 1012.7
20260506144413 24 115 3.2 11.3 0.00 0.00 0.00 30 1012.7
20260506143912 24 80 3.2 8.0 0.00 0.00 0.00 30 1012.7
20260506143413 24 50 3.2 8.0 0.00 0.00 0.00 30 1012.7
20260506142914 24 199 4.8 8.0 0.00 0.00 0.00 31 1012.7
20260506142413 24 213 4.8 9.7 0.00 0.00 0.00 31 1012.7
20260506141913 24 204 3.2 9.7 0.00 0.00 0.00 31 1012.7
20260506141413 24 206 4.8 14.5 0.00 0.00 0.00 31 1012.7
20260506140414 24 243 3.2 8.0 0.00 0.00 0.00 32 1012.7
20260506135913 24 268 3.2 6.4 0.00 0.00 0.00 32 1012.7
20260506135413 23 318 3.2 9.7 0.00 0.00 0.00 32 1012.7
20260506134912 23 331 3.2 9.7 0.00 0.00 0.00 32 1012.7
20260506134413 23 329 4.8 11.3 0.00 0.00 0.00 32 1012.7
20260506132913 24 260 4.8 12.9 0.00 0.00 0.00 32 1012.7
20260506132413 24 270 4.8 12.9 0.00 0.00 0.00 33 1012.7
20260506131913 23 259 3.2 11.3 0.00 0.00 0.00 35 1012.7
20260506131413 23 303 4.8 12.9 0.00 0.00 0.00 35 1012.7
20260506130913 23 338 6.4 12.9 0.00 0.00 0.00 36 1012.7
20260506130413 23 2 6.4 12.9 0.00 0.00 0.00 37 1012.7
20260506125913 23 350 3.2 11.3 0.00 0.00 0.00 37 1012.7
20260506125413 23 239 1.6 6.4 0.00 0.00 0.00 37 1012.7
20260506124913 23 288 3.2 12.9 0.00 0.00 0.00 37 1012.7
20260506124413 23 305 6.4 12.9 0.00 0.00 0.00 37 1012.7
20260506123913 23 318 6.4 14.5 0.00 0.00 0.00 38 1012.7
20260506123413 23 320 6.4 14.5 0.00 0.00 0.00 38 1012.7
20260506122912 23 303 4.8 12.9 0.00 0.00 0.00 38 1012.7
20260506122413 22 260 3.2 6.4 0.00 0.00 0.00 39 1012.7
20260506121912 22 195 1.6 4.8 0.00 0.00 0.00 39 1012.7
20260506121413 22 138 1.6 6.4 0.00 0.00 0.00 38 1012.7
20260506120913 22 53 3.2 9.7 0.00 0.00 0.00 38 1012.7
20260506115913 22 321 4.8 11.3 0.00 0.00 0.00 39 1012.7
20260506115413 23 285 4.8 11.3 0.00 0.00 0.00 37 1012.7
20260506114912 22 267 4.8 8.0 0.00 0.00 0.00 38 1012.7
20260506114414 22 336 3.2 8.0 0.00 0.00 0.00 38 1012.7
20260506113913 23 308 1.6 8.0 0.00 0.00 0.00 37 1012.7
20260506113413 22 273 1.6 11.3 0.00 0.00 0.00 37 1012.7
20260506112914 22 252 3.2 11.3 0.00 0.00 0.00 40 1012.7
20260506112412 22 231 3.2 8.0 0.00 0.00 0.00 41 1012.7
20260506111914 22 205 1.6 6.4 0.00 0.00 0.00 42 1012.7
20260506111413 21 141 1.6 6.4 0.00 0.00 0.00 42 1012.7
20260506110913 21 140 3.2 6.4 0.00 0.00 0.00 42 1012.7
20260506110413 22 124 1.6 4.8 0.00 0.00 0.00 42 1012.7
20260506105914 22 90 1.6 4.8 0.00 0.00 0.00 45 1012.7
20260506105413 21 37 1.6 6.4 0.00 0.00 0.00 45 1012.7
20260506104914 21 22 1.6 6.4 0.00 0.00 0.00 47 1012.7
20260506104412 21 163 0.0 6.4 0.00 0.00 0.00 47 1012.7
20260506103913 21 192 1.6 3.2 0.00 0.00 0.00 48 1012.7
20260506103412 21 213 1.6 6.4 0.00 0.00 0.00 48 1012.7
20260506102913 21 215 1.6 6.4 0.00 0.00 0.00 49 1012.7
20260506102413 21 218 1.6 6.4 0.00 0.00 0.00 50 1012.7
20260506101912 20 184 3.2 6.4 0.00 0.00 0.00 51 1012.7
20260506101413 20 145 1.6 6.4 0.00 0.00 0.00 51 1012.7
20260506100913 20 95 1.6 3.2 0.00 0.00 0.00 51 1012.7
20260506100413 20 91 1.6 4.8 0.00 0.00 0.00 52 1012.7
20260506095912 19 58 1.6 6.4 0.00 0.00 0.00 51 1012.7
20260506095414 19 28 1.6 6.4 0.00 0.00 0.00 52 1012.7
20260506094912 19 25 1.6 6.4 0.00 0.00 0.00 51 1012.7
20260506094412 20 33 3.2 6.4 0.00 0.00 0.00 52 1012.7
20260506093913 19 36 3.2 9.7 0.00 0.00 0.00 52 1012.7
20260506093413 19 37 3.2 9.7 0.00 0.00 0.00 53 1012.7
20260506092414 18 350 1.6 6.4 0.00 0.00 0.00 54 1012.7
20260506091912 18 31 1.6 4.8 0.00 0.00 0.00 54 1012.7
20260506091413 18 45 1.6 6.4 0.00 0.00 0.00 55 1012.7
20260506090913 18 25 1.6 8.0 0.00 0.00 0.00 55 1012.7
20260506090413 18 35 1.6 8.0 0.00 0.00 0.00 55 1012.7
20260506085913 18 48 3.2 6.4 0.00 0.00 0.00 56 1012.7
20260506084912 18 1 3.2 8.0 0.00 0.00 0.00 56 1012.7
20260506083912 17 61 1.6 4.8 0.00 0.00 0.00 58 1012.7
20260506083413 17 35 3.2 4.8 0.00 0.00 0.00 59 1012.7
20260506082913 17 16 3.2 6.4 0.00 0.00 0.00 58 1012.7
20260506082412 17 22 3.2 6.4 0.00 0.00 0.00 58 1012.7
20260506081913 17 38 3.2 8.0 0.00 0.00 0.00 59 1012.7
20260506081412 17 44 3.2 8.0 0.00 0.00 0.00 59 1012.7
20260506080913 17 25 1.6 6.4 0.00 0.00 0.00 59 1012.7
20260506080412 17 3 3.2 9.7 0.00 0.00 0.00 60 1012.7
20260506073412 16 16 6.4 12.9 0.00 0.00 0.00 63 1012.7
20260506072912 16 25 6.4 12.9 0.00 0.00 0.00 63 1012.7
20260506072412 16 43 4.8 4.8 0.00 0.00 0.00 64 1012.7
20260506071413 15 29 4.8 11.3 0.00 0.00 0.00 64 1012.7
20260506070913 15 30 3.2 11.3 0.00 0.00 0.00 65 1012.7
20260506062413 15 32 6.4 12.9 0.00 0.00 0.00 67 1012.7
20260506061913 15 35 4.8 12.9 0.00 0.00 0.00 67 1012.7
20260506060912 14 43 4.8 9.7 0.00 0.00 0.00 68 1012.7
20260506060412 14 42 3.2 8.0 0.00 0.00 0.00 68 1012.7
20260506051412 14 62 3.2 6.4 0.00 0.00 0.00 68 1012.7
20260506050412 14 64 1.6 3.2 0.00 0.00 0.00 68 1012.7
20260506044912 15 38 1.6 4.8 0.00 0.00 0.00 66 1012.7